Tioga Municipal Airport, ND

4:22 AM CDT on March 30, 2017 (GMT -0500)
Tioga Municipal Airport

Weather History for KD60 - March, 2014

Change the Weather History Date:

Tuesday, March 25, 2014

  Actual Average (KISN) Record (KISN)
Temperature  
Mean Temperature 16 °F -  
Max Temperature 26 °F 43 °F 78 °F (2007)
Min Temperature 5 °F 22 °F -20 °F (1964)
Degree Days  
Heating Degree Days 50    
Moisture  
Dew Point 5 °F    
Average Humidity 72    
Maximum Humidity 100    
Minimum Humidity 28    
Precipitation  
Precipitation 0.00 in - - ()
Sea Level Pressure  
Sea Level Pressure 30.15 in    
Wind  
Wind Speed 8 mph (WSW)    
Max Wind Speed 15 mph    
Max Gust Speed -    
Visibility 10 miles    
Events Snow    
Averages and records for this station are not official NWS values.
T = Trace of Precipitation, MM = Missing Value Source: NWS Daily Summary

Daily Weather History Graph

Daily Weather History Graph

Search for Another Location

Airport or City:

Trip Planner

Search our weather history database for the weather conditions in past years. The results will help you decide how hot, cold, wet, or windy it might be!

Date:

Astronomy

Mar. 25, 2014 Rise Set
Actual Time 7:43 AM CDT 8:11 PM CDT
Civil Twilight 7:12 AM CDT 8:43 PM CDT
Nautical Twilight 6:35 AM CDT 9:20 PM CDT
Astronomical Twilight 5:56 AM CDT 9:59 PM CDT
Moon 4:31 AM CDT (3/25) 2:22 PM CDT (3/25)
Length of Visible Light 13h 30m
Length of Day
12h 27m
Waning Crescent, 32% of the Moon is Illuminated
Mar 25
Waning Crescent
Mar 30
New
Apr 7
First Quarter
Apr 15
Full
Apr 22
Last Quarter

Hourly Weather History & Observations

Time (CDT) Temp. Windchill Dew Point Humidity Pressure Visibility Wind Dir Wind Speed Gust Speed Precip Events Conditions
12:15 AM 8.6 °F -3.7 °F 8.6 °F 100% 30.35 in 10.0 mi WNW 8.1 mph - N/A   Clear
12:35 AM 6.8 °F -4.8 °F 6.8 °F 100% 30.35 in 10.0 mi NW 6.9 mph - N/A   Clear
12:55 AM 8.6 °F -3.7 °F 6.8 °F 92% 30.35 in 10.0 mi WNW 8.1 mph - N/A   Clear
1:15 AM 8.6 °F -6.3 °F 8.6 °F 100% 30.36 in 10.0 mi WNW 11.5 mph - N/A   Clear
1:35 AM 8.6 °F -7.0 °F 8.6 °F 100% 30.36 in 10.0 mi WNW 12.7 mph - N/A   Partly Cloudy
1:55 AM 8.6 °F -8.3 °F 8.6 °F 100% 30.35 in 10.0 mi WNW 15.0 mph - N/A   Clear
2:15 AM 8.6 °F -6.3 °F 8.6 °F 100% 30.35 in 10.0 mi WNW 11.5 mph - N/A   Partly Cloudy
2:35 AM 8.6 °F -6.3 °F 8.6 °F 100% 30.35 in 10.0 mi WNW 11.5 mph - N/A   Scattered Clouds
2:55 AM 8.6 °F -6.3 °F 8.6 °F 100% 30.35 in 10.0 mi WNW 11.5 mph - N/A   Partly Cloudy
3:15 AM 8.6 °F -4.7 °F 8.6 °F 100% 30.34 in 10.0 mi NW 9.2 mph - N/A   Clear
3:35 AM 8.6 °F -5.5 °F 8.6 °F 100% 30.33 in 10.0 mi NW 10.4 mph - N/A   Clear
3:55 AM 6.8 °F -4.8 °F 6.8 °F 100% 30.34 in 10.0 mi NW 6.9 mph - N/A   Clear
4:15 AM 6.8 °F -4.8 °F 6.8 °F 100% 30.33 in 10.0 mi WNW 6.9 mph - N/A Snow Light Snow
4:35 AM 6.8 °F -3.5 °F 6.8 °F 100% 30.32 in 10.0 mi NW 5.8 mph - N/A Snow Light Snow
4:55 AM 6.8 °F -3.5 °F 6.8 °F 100% 30.32 in 10.0 mi WNW 5.8 mph - N/A   Clear
5:15 AM 5.0 °F -4.1 °F 5.0 °F 100% 30.32 in 10.0 mi NNW 4.6 mph - N/A   Clear
5:35 AM 5.0 °F -5.6 °F 5.0 °F 100% 30.32 in 10.0 mi WNW 5.8 mph - N/A   Clear
5:55 AM 5.0 °F -5.6 °F 5.0 °F 100% 30.31 in 10.0 mi NW 5.8 mph - N/A   Clear
6:15 AM 5.0 °F -5.6 °F 5.0 °F 100% 30.30 in 10.0 mi NW 5.8 mph - N/A   Clear
6:35 AM 5.0 °F -5.6 °F 5.0 °F 100% 30.29 in 10.0 mi NW 5.8 mph - N/A   Clear
6:55 AM 5.0 °F -2.1 °F 5.0 °F 100% 30.29 in 10.0 mi West 3.5 mph - N/A   Clear
7:15 AM 5.0 °F -2.1 °F 5.0 °F 100% 30.29 in 10.0 mi NW 3.5 mph - N/A   Clear
7:35 AM 5.0 °F - 5.0 °F 100% 30.29 in 10.0 mi Calm Calm - N/A   Clear
7:55 AM 5.0 °F -2.1 °F 5.0 °F 100% 30.28 in 10.0 mi North 3.5 mph - N/A   Clear
8:15 AM 6.8 °F - 6.8 °F 100% 30.28 in 10.0 mi Calm Calm - N/A   Clear
8:35 AM 6.8 °F - 6.8 °F 100% 30.27 in 10.0 mi Calm Calm - N/A   Clear
8:55 AM 6.8 °F -3.5 °F 6.8 °F 100% 30.28 in 10.0 mi West 5.8 mph - N/A   Clear
9:15 AM 6.8 °F -4.8 °F 6.8 °F 100% 30.27 in 10.0 mi West 6.9 mph - N/A   Clear
9:35 AM 8.6 °F -2.6 °F 8.6 °F 100% 30.27 in 10.0 mi West 6.9 mph - N/A   Clear
9:55 AM 10.4 °F 0.8 °F 10.4 °F 100% 30.26 in 10.0 mi West 5.8 mph - N/A   Clear
10:15 AM 10.4 °F -0.4 °F 10.4 °F 100% 30.26 in 10.0 mi West 6.9 mph - N/A   Partly Cloudy
10:35 AM 12.2 °F 0.7 °F 8.6 °F 85% 30.25 in 10.0 mi West 8.1 mph - N/A   Mostly Cloudy
10:55 AM 14.0 °F 5.1 °F 6.8 °F 73% 30.24 in 10.0 mi West 5.8 mph - N/A   Partly Cloudy
11:15 AM 14.0 °F 3.9 °F 6.8 °F 73% 30.23 in 10.0 mi West 6.9 mph - N/A   Clear
11:35 AM 15.8 °F 5.1 °F 6.8 °F 68% 30.22 in 10.0 mi West 8.1 mph - N/A   Clear
11:55 AM 15.8 °F 7.2 °F 6.8 °F 68% 30.21 in 10.0 mi WNW 5.8 mph - N/A   Clear
12:15 PM 15.8 °F 6.1 °F 5.0 °F 62% 30.20 in 10.0 mi SW 6.9 mph - N/A   Clear
12:35 PM 17.6 °F 5.7 °F 5.0 °F 58% 30.19 in 10.0 mi SW 10.4 mph - N/A   Clear
12:55 PM 17.6 °F 9.3 °F 5.0 °F 58% 30.18 in 10.0 mi WNW 5.8 mph - N/A   Clear
1:15 PM 17.6 °F 10.7 °F 3.2 °F 53% 30.16 in 10.0 mi West 4.6 mph - N/A   Clear
1:35 PM 17.6 °F 12.3 °F 1.4 °F 49% 30.15 in 10.0 mi South 3.5 mph - N/A   Clear
1:55 PM 19.4 °F 14.3 °F 1.4 °F 46% 30.14 in 10.0 mi West 3.5 mph - N/A   Clear
2:15 PM 19.4 °F 11.5 °F 5.0 °F 54% 30.13 in 10.0 mi SW 5.8 mph - N/A   Clear
2:35 PM 21.2 °F 10.9 °F 5.0 °F 50% 30.11 in 10.0 mi SW 9.2 mph - N/A   Clear
2:55 PM 23.0 °F 14.7 °F 3.2 °F 43% 30.10 in 10.0 mi SW 6.9 mph - N/A   Clear
3:15 PM 23.0 °F 17.0 °F 1.4 °F 39% 30.09 in 10.0 mi SSW 4.6 mph - N/A   Mostly Cloudy
3:35 PM 23.0 °F 18.4 °F -0.4 °F 36% 30.08 in 10.0 mi SSE 3.5 mph - N/A   Overcast
3:55 PM 23.0 °F 17.0 °F -2.2 °F 33% 30.06 in 10.0 mi South 4.6 mph - N/A   Mostly Cloudy
4:15 PM 24.8 °F 20.5 °F -2.2 °F 31% 30.04 in 10.0 mi South 3.5 mph - N/A   Clear
4:35 PM 24.8 °F 16.9 °F -2.2 °F 31% 30.03 in 10.0 mi South 6.9 mph - N/A   Clear
4:55 PM 24.8 °F 20.5 °F -2.2 °F 31% 30.02 in 10.0 mi SSE 3.5 mph - N/A   Clear
5:15 PM 24.8 °F - -4.0 °F 28% 30.01 in 10.0 mi Calm Calm - N/A   Partly Cloudy
5:35 PM 26.6 °F 19.1 °F -0.4 °F 31% 29.99 in 10.0 mi SSE 6.9 mph - N/A   Partly Cloudy
5:55 PM 26.6 °F 18.2 °F -0.4 °F 31% 29.97 in 10.0 mi South 8.1 mph - N/A   Clear
6:15 PM 24.8 °F 16.1 °F 1.4 °F 36% 29.97 in 10.0 mi SSE 8.1 mph - N/A   Clear
6:35 PM 24.8 °F 16.1 °F -0.4 °F 34% 29.96 in 10.0 mi South 8.1 mph - N/A   Clear
6:55 PM 24.8 °F 15.3 °F 1.4 °F 36% 29.95 in 10.0 mi SSE 9.2 mph - N/A   Clear
7:15 PM 24.8 °F 14.6 °F 3.2 °F 40% 29.94 in 10.0 mi SSE 10.4 mph - N/A   Clear
7:35 PM 24.8 °F 14.6 °F 5.0 °F 43% 29.92 in 10.0 mi SE 10.4 mph - N/A   Clear
7:55 PM 23.0 °F 13.1 °F 5.0 °F 46% 29.92 in 10.0 mi SE 9.2 mph - N/A   Clear
8:15 PM 23.0 °F 13.9 °F 6.8 °F 50% 29.91 in 10.0 mi SE 8.1 mph - N/A   Clear
8:35 PM 21.2 °F 11.7 °F 6.8 °F 54% 29.90 in 10.0 mi SE 8.1 mph - N/A   Clear
8:55 PM 21.2 °F 11.7 °F 6.8 °F 54% 29.89 in 10.0 mi SE 8.1 mph - N/A   Clear
9:15 PM 19.4 °F 9.5 °F 8.6 °F 63% 29.88 in 10.0 mi ESE 8.1 mph - N/A   Clear
9:35 PM 19.4 °F 10.4 °F 8.6 °F 63% 29.87 in 10.0 mi ESE 6.9 mph - N/A   Clear
9:55 PM 19.4 °F 7.9 °F 8.6 °F 63% 29.86 in 10.0 mi ESE 10.4 mph - N/A   Clear
10:15 PM 19.4 °F 7.9 °F 8.6 °F 63% 29.85 in 10.0 mi ESE 10.4 mph - N/A   Clear
10:35 PM 19.4 °F 8.6 °F 8.6 °F 63% 29.85 in 10.0 mi ESE 9.2 mph - N/A   Partly Cloudy
10:55 PM 19.4 °F 7.9 °F 8.6 °F 63% 29.84 in 10.0 mi ESE 10.4 mph - N/A   Clear
11:15 PM 21.2 °F 10.1 °F 8.6 °F 58% 29.83 in 10.0 mi ESE 10.4 mph - N/A   Clear
11:35 PM 19.4 °F 7.9 °F 8.6 °F 63% 29.82 in 10.0 mi ESE 10.4 mph - N/A   Clear
11:55 PM 19.4 °F 7.9 °F 8.6 °F 63% 29.81 in 10.0 mi ESE 10.4 mph - N/A   Clear